Location: Recife
(8.0585°S, 34.8848°W)
Time: 13:15:20
(UTC-03:00)

Tiros 1 - Pass Details

Date: 22 April 2026
Orbit: 618 x 648 km, 48.4° (Epoch: 11 May)

Event Time Altitude Azimuth Distance (km) Brightness Sun altitude
Rises 16:46:10 0° 322° (NW) 2,930 11.4 6.0°
Reaches altitude 10° 16:48:29 10° 323° (NW) 2,028 10.6 5.4°
Maximum altitude 16:53:10 85° 51° (NE) 652 7.3 4.3°
Drops below altitude 10° 16:57:54 10° 139° (SE) 2,048 9.3 3.1°
Sets 17:00:15 0° 139° (SE) 2,961 10.1 2.6°
